RH
57 50 43 42 42 42 44 47 48 47 45 44 44 43 38 34 33 33 36 36 32 30 29 25 25 28 31 34 37 41 44 48 55 60 63 66 63 60 60 60 57 52 46 41 39 38 34 34 41 48 48 42 38 36 39 47 55 60 64 66 72 79 86 93 97 96 92 91 93 95 96 96 95 96
58 52 45 43 44 43 46 49 50 48 47 46 45 42 36 34 36 36 37 36 31 27 27 26 26 27 31 36 38 41 46 53 62 67 69 70 69 63 60 60 59 55 50 44 40 38 34 34 40 47 48 43 38 37 39 44 52 56 59 66 70 72 75 83 92 97 96 93 93 94 97 97 96 97
60 53 47 47 47 46 48 50 49 47 46 46 45 41 37 36 39 39 39 37 29 25 25 24 26 29 31 36 40 43 50 60 68 72 72 73 73 69 62 59 59 57 53 47 42 40 35 34 40 46 48 44 38 37 38 42 50 54 56 62 67 67 68 74 84 92 95 93 92 94 97 98 96 97
63 53 49 50 50 49 52 52 49 48 47 45 44 42 39 39 42 41 40 37 27 23 25 23 25 31 34 37 44 48 55 68 77 78 79 78 74 70 65 60 58 57 55 50 45 42 37 32 37 43 45 44 40 37 38 41 48 54 55 59 62 62 65 70 76 85 92 93 94 95 97 99 99 97
65 55 51 51 51 53 56 55 50 50 48 44 45 45 41 41 45 41 37 35 28 22 24 26 27 32 35 39 48 56 63 73 82 84 84 80 73 69 66 61 57 54 52 50 46 44 39 34 36 42 45 44 40 37 38 40 46 53 55 57 57 56 61 66 69 77 86 90 95 97 96 98 100 98
68 58 53 51 52 55 58 56 52 51 48 45 47 47 42 43 46 39 31 32 32 26 22 25 28 32 37 43 53 64 71 75 81 83 83 79 74 70 67 63 59 54 51 49 47 45 43 38 39 44 46 45 41 38 37 39 45 52 55 55 54 54 58 63 65 70 79 84 89 93 93 95 98 97
70 61 54 52 53 56 57 56 54 51 47 48 49 46 43 45 44 36 29 29 34 32 26 26 29 33 39 48 59 70 74 75 77 79 80 80 79 74 69 65 62 58 52 49 47 46 44 41 40 45 47 44 41 38 37 38 42 48 54 52 50 54 56 59 62 66 73 79 81 84 86 90 96 96
72 64 55 52 53 55 56 57 55 50 47 50 51 45 44 47 42 34 29 28 33 37 34 32 37 41 45 54 67 74 73 73 76 79 83 85 83 79 73 67 64 62 57 52 50 47 45 42 40 44 47 44 42 39 36 38 39 44 52 50 48 55 54 54 62 67 71 77 80 80 81 83 90 95
74 65 56 53 52 54 58 59 55 50 51 53 51 45 45 46 39 32 28 26 31 40 41 40 45 50 52 60 71 75 70 68 73 81 87 88 88 87 84 76 69 67 62 55 51 48 45 42 39 41 44 42 39 36 32 35 37 41 49 49 47 53 51 48 58 65 67 75 81 83 83 84 88 93
75 66 57 53 52 55 60 59 55 53 55 54 49 45 44 44 39 32 30 30 34 41 45 47 49 52 57 64 68 69 69 69 72 78 82 87 92 92 92 89 80 72 67 58 50 45 41 39 35 35 39 37 33 30 26 26 29 34 44 49 48 48 44 41 46 52 58 69 78 84 87 87 89 91
75 67 58 54 53 56 60 60 58 57 56 54 48 44 45 45 41 36 33 34 37 42 46 49 51 55 61 66 65 64 70 72 73 75 76 81 90 93 94 96 90 79 72 63 52 44 39 37 34 33 36 35 31 28 25 22 22 25 32 41 46 44 40 38 40 41 49 64 75 82 87 88 88 90
75 67 59 55 55 58 61 62 61 58 55 53 47 46 49 47 42 37 34 34 37 42 46 49 52 55 60 65 66 68 72 72 73 78 78 79 86 91 92 95 96 88 76 67 58 46 39 36 33 32 34 35 31 28 25 23 21 21 22 27 34 35 33 35 39 38 43 59 73 80 86 88 87 89
75 67 60 57 56 59 62 63 61 58 56 51 46 48 50 47 41 36 34 34 36 41 46 48 52 55 60 65 67 69 73 74 75 81 85 85 89 93 90 89 95 94 79 68 62 53 43 37 33 31 32 33 32 28 26 23 21 21 20 21 26 27 25 28 34 36 40 54 69 77 83 87 87 88
75 67 60 57 58 61 65 63 60 59 56 49 46 50 50 45 42 37 34 34 36 41 45 48 52 56 58 62 64 66 71 78 83 88 92 93 94 94 89 84 90 93 82 70 66 59 50 42 35 31 29 31 32 28 25 24 22 21 21 20 22 23 20 21 26 31 37 50 66 75 80 85 86 87
74 67 60 57 58 64 66 63 60 58 54 48 47 48 43 38 37 36 35 34 35 40 45 48 53 53 52 56 60 64 71 79 90 96 95 95 95 94 88 80 81 88 83 72 67 64 57 47 38 32 28 29 31 28 25 24 23 22 22 19 19 19 18 18 21 25 32 46 62 72 77 83 86 87
75 67 61 57 60 66 66 62 59 54 48 45 44 41 34 29 29 29 32 33 34 39 44 46 48 46 47 55 61 66 74 80 87 91 92 96 98 90 79 71 70 77 78 69 65 66 64 54 42 35 28 27 30 29 25 24 23 22 22 20 18 17 15 16 18 21 28 41 57 68 75 82 86 87
74 66 61 58 61 66 64 61 59 51 42 41 40 35 30 27 24 22 26 32 34 38 39 40 40 42 50 61 66 69 72 74 78 85 91 97 95 82 72 68 66 68 68 62 59 63 67 61 47 37 31 27 28 28 25 24 23 22 22 20 17 15 14 15 15 17 23 35 52 64 72 79 85 86
75 65 60 59 62 65 63 61 56 45 38 39 37 32 28 25 23 24 27 29 29 28 29 33 38 45 55 64 65 63 64 69 79 88 93 94 85 74 74 76 74 70 63 56 53 55 64 66 52 39 33 28 26 27 25 24 22 21 22 20 16 13 13 14 14 15 20 30 45 60 68 75 81 84
75 66 62 62 64 64 61 56 47 38 37 39 35 30 27 26 28 28 26 24 23 24 28 35 42 48 53 56 56 57 62 71 83 93 96 92 81 74 79 82 80 75 64 56 53 51 59 68 59 44 37 32 26 25 25 23 22 21 21 20 16 13 13 14 14 14 17 25 39 55 64 71 77 80
75 65 62 63 62 57 52 47 39 36 39 40 35 31 30 30 29 24 20 20 24 28 31 35 40 43 45 48 51 55 60 68 80 92 97 93 83 81 86 84 81 77 66 57 55 51 57 69 64 51 44 37 28 24 24 22 21 20 20 19 16 12 11 14 15 14 16 21 33 49 61 68 73 76
73 63 60 59 54 49 46 41 37 37 41 42 41 39 36 31 25 20 19 21 24 27 28 29 33 37 40 44 47 53 59 67 82 94 97 91 85 88 93 91 86 78 65 58 56 54 59 67 62 52 48 43 32 25 23 22 21 20 19 19 17 12 10 13 17 17 16 19 29 43 56 64 69 73
72 61 58 55 50 46 43 39 37 39 42 43 45 43 38 29 23 21 21 20 20 24 24 23 27 32 36 40 45 52 59 71 88 97 96 90 87 90 97 96 89 79 66 60 58 55 57 63 61 55 51 46 36 26 22 21 20 20 19 17 16 13 9 13 20 21 17 18 26 38 50 59 66 70
69 60 56 52 49 46 41 37 38 40 43 45 46 43 35 26 23 23 22 17 18 22 22 22 25 30 35 39 45 52 59 74 92 101 96 90 89 94 100 98 90 80 70 62 56 54 57 62 63 60 55 48 37 27 24 24 20 18 19 17 15 13 11 15 23 25 19 17 24 35 44 52 60 67
65 57 52 49 49 45 39 39 41 42 45 49 46 37 28 26 27 25 20 15 17 20 23 24 26 31 37 41 46 52 60 76 95 102 97 92 93 98 101 100 94 85 74 63 53 51 57 61 61 59 56 50 40 30 27 30 26 20 18 17 14 13 13 18 26 25 18 16 24 34 41 46 55 63
60 53 50 49 47 41 38 41 42 42 44 45 39 29 26 27 28 22 17 15 16 19 23 24 25 30 36 40 44 50 59 75 95 103 99 96 98 100 100 101 98 88 76 70 63 56 56 58 58 58 54 48 42 33 29 33 33 26 19 16 13 14 18 23 26 22 15 15 23 32 38 43 51 58
54 52 52 49 43 39 40 43 42 39 38 37 31 26 24 22 20 17 16 16 16 18 22 23 23 27 33 38 43 48 57 74 92 101 101 99 100 101 99 100 99 88 75 71 69 63 59 57 54 54 53 47 41 36 31 32 36 32 23 15 13 18 24 29 30 23 14 14 23 31 36 41 48 54
54 55 53 46 40 40 43 44 41 37 35 32 28 24 22 19 17 16 17 17 16 17 20 22 22 25 30 36 42 48 57 73 89 97 100 99 99 100 100 99 98 89 73 65 63 62 62 58 52 50 50 45 39 36 31 31 35 35 30 22 19 23 29 33 33 26 16 14 21 29 34 38 44 51
58 56 50 42 40 43 45 43 39 36 33 30 27 24 22 20 18 17 17 17 17 17 18 21 23 24 28 35 43 49 56 70 85 93 95 96 97 98 99 99 98 90 80 73 70 67 62 56 47 44 45 44 42 37 31 31 35 35 33 30 26 26 30 33 34 30 22 17 21 28 33 36 40 48
57 54 47 42 42 45 45 42 38 34 31 30 28 26 24 21 20 20 18 18 18 18 19 21 23 24 28 34 41 48 54 64 80 89 93 96 98 99 99 101 100 96 93 90 83 76 69 58 47 44 49 54 52 42 31 33 38 37 34 34 32 30 30 32 33 33 29 25 24 27 32 34 37 45
56 51 45 43 45 46 44 40 36 32 32 31 29 26 25 23 22 22 21 20 21 20 20 21 23 25 28 32 37 42 48 57 72 86 93 96 98 98 99 100 100 99 100 98 90 83 77 66 53 50 55 59 55 44 35 37 45 45 40 37 35 33 33 33 33 33 32 31 30 30 33 36 39 44
53 49 46 46 46 45 43 39 35 33 32 32 29 27 25 24 24 24 23 22 22 22 22 22 23 25 27 30 35 38 43 50 64 80 90 93 93 95 98 100 100 98 98 99 97 92 85 71 57 55 59 57 51 46 44 49 56 59 54 45 37 34 34 33 32 32 32 32 33 34 37 39 41 45
53 50 48 47 45 44 42 38 35 34 33 32 30 28 26 25 24 24 25 23 23 24 24 23 23 25 27 31 35 38 40 45 55 70 84 88 88 90 96 99 99 98 97 97 98 100 95 81 65 60 62 59 52 48 49 55 63 66 64 58 47 37 34 34 32 32 33 32 33 34 36 38 41 44
53 51 50 47 44 44 42 38 35 35 34 33 31 29 27 26 25 25 25 26 24 24 25 25 24 25 27 30 35 39 41 42 49 62 77 84 85 86 92 98 98 99 100 99 97 99 100 93 82 74 66 61 59 54 51 56 65 69 68 66 58 43 34 33 31 29 28 28 29 33 35 36 39 42
54 53 51 47 44 43 42 39 36 35 35 34 33 32 30 28 27 26 26 26 25 24 24 26 26 25 26 29 34 39 41 41 45 55 67 77 81 83 87 93 97 98 100 101 101 99 98 95 93 88 78 67 62 61 57 56 62 67 67 65 59 46 36 33 30 27 25 25 27 31 34 36 37 40
56 55 50 46 43 43 42 40 37 36 37 36 35 34 33 30 29 28 26 26 26 25 24 25 26 26 26 27 32 39 42 41 43 49 58 68 77 81 83 87 93 96 97 99 102 101 99 96 94 94 90 78 65 62 65 63 60 59 60 59 54 45 39 37 35 32 30 29 30 32 33 34 36 39
57 55 50 46 43 43 43 41 38 38 39 39 38 37 36 33 32 30 28 27 27 26 25 24 24 25 26 26 29 36 42 43 43 47 54 62 71 78 82 83 86 91 94 96 99 100 100 98 94 93 96 92 77 67 70 73 68 60 60 63 57 47 43 41 38 35 34 32 32 32 33 33 35 38
58 56 51 46 43 44 44 42 40 40 41 41 41 39 38 36 35 33 30 29 29 28 26 24 23 24 25 26 27 32 39 45 45 44 50 57 63 70 77 80 82 85 89 93 96 98 99 100 96 92 94 97 92 80 75 77 75 67 65 67 63 56 52 48 40 35 34 33 33 33 32 33 36 38
60 57 51 45 44 45 45 43 42 42 43 43 43 42 40 39 37 36 34 32 31 30 28 26 25 24 23 24 25 27 34 43 47 46 47 52 57 62 69 75 78 80 84 88 92 94 96 98 99 97 95 96 97 92 84 80 77 72 69 68 65 61 60 58 51 43 36 33 34 34 33 33 36 39
60 56 51 46 44 45 46 45 44 44 45 45 44 44 43 41 39 38 37 35 33 32 31 29 27 26 24 23 24 25 28 36 44 48 47 49 53 58 61 65 71 76 80 83 86 89 92 93 95 98 99 97 96 94 89 83 79 76 72 68 65 63 62 62 61 56 47 38 35 35 35 35 37 41
61 57 51 46 45 46 47 47 45 44 46 47 46 45 44 43 41 40 39 37 36 35 34 32 30 28 27 25 23 23 25 29 37 45 48 48 51 55 57 58 62 69 76 80 81 83 87 91 92 95 99 100 98 94 88 83 81 81 78 72 68 66 64 62 61 61 58 51 44 40 40 41 41 43
61 57 52 46 46 47 48 48 47 46 46 48 48 47 46 44 43 42 41 40 39 39 38 37 34 31 29 28 26 24 24 25 29 37 43 46 48 52 56 57 57 60 68 75 78 80 83 88 91 93 95 98 99 94 87 82 81 81 79 75 71 67 66 64 61 60 61 60 55 51 50 50 49 49
61 57 51 47 46 47 49 50 49 47 47 49 49 48 47 46 45 44 43 42 42 42 42 41 39 36 33 31 30 27 26 25 26 30 36 42 45 47 52 56 57 57 60 66 71 76 78 82 86 89 90 93 95 93 89 86 85 82 77 73 71 69 68 66 63 61 61 61 60 59 58 57 56 55
62 58 52 47 47 48 49 50 50 48 48 50 50 49 48 48 47 47 46 45 45 45 44 44 43 41 38 36 34 32 29 28 27 27 30 36 41 43 46 51 55 57 57 57 59 63 68 74 80 84 86 88 91 92 90 87 86 85 82 76 71 70 69 67 65 64 62 61 60 60 59 58 57 55
63 59 53 48 47 48 49 51 51 49 49 50 51 50 49 49 49 49 49 48 48 47 47 47 46 45 43 41 38 36 34 32 30 29 28 30 35 39 42 45 49 54 57 59 57 55 57 64 71 77 81 84 87 89 90 88 85 84 85 83 78 76 74 71 67 65 64 62 61 60 59 58 56 55
64 60 55 50 48 48 50 52 51 50 50 51 52 51 50 50 51 51 51 51 50 50 50 50 49 48 47 45 42 40 39 37 35 33 31 29 30 34 38 41 44 47 51 56 59 58 56 58 61 65 72 79 83 84 86 88 85 82 83 83 83 81 80 78 73 69 66 64 62 61 61 60 59 59